Home > Weather > Dover > Past weeks

Flag for USA Weather for the Past 2 Weeks in Dover, Delaware, USA

Now
56 °F

More clouds than sun.


Feels Like: 53 °F
Forecast: 53 / 59 °F
Wind: 10 mph from Northeast

Location: Dover Air Force Base

Current Time: May 3, 2016 at 8:24:22 PM

Latest Report: May 3, 2016 at 7:58 PM


Visibility: 10 mi

Pressure: 29.80 "Hg

Humidity: 100%

Dew Point: 56 °F

Location of DoverLocation

Historic Weather in Dover — Graph

°F

Dover Temperature Yesterday

Maximum temperature yesterday: 65 °F (at 1:58 PM)
Minimum temperature yesterday: 52 °F (at 3:58 AM)
Average temperature yesterday: 57 °F

High & Low Weather Summary for the Past Weeks

 TemperatureHumidityPressure
High85 °F (Apr 26, 4:58 PM)100% (Apr 22, 9:58 PM)30.30 "Hg (Apr 22, 9:58 PM)
Low44 °F (Apr 20, 6:58 AM)27% (Apr 20, 1:58 PM)29.63 "Hg (Apr 26, 5:58 PM)
Average57 °F81%30.00 "Hg
* Reported Apr 18 6:58 PM — May 3 6:58 PM, Dover, Weather by CustomWeather, © 2016

Note: Actual official high and low records may vary slightly from our data, if they occured in-between our weather recording intervals... More about our weather records

Advertising

Dover Weather History for the Previous 24 Hours

Scroll right to see more
 ConditionsComfort  
Time TempWeatherWind HumidityBarometerVisibility
6:58 PM
Tue, May 3
56 °FLow clouds.8 mph100%29.79 "Hg8 mi
5:58 PM57 °FFog.8 mph100%29.79 "Hg4 mi
5:03 PM57 °FDrizzle. Fog.8 mph100%29.77 "Hg3 mi
3:58 PM58 °FLow clouds.8 mph100%29.77 "Hg10 mi
3:03 PM59 °FLow clouds.8 mph100%29.77 "Hg7 mi
1:58 PM59 °FLow clouds.6 mph100%29.78 "Hg10 mi
12:58 PM59 °FLow clouds.7 mph100%29.79 "Hg9 mi
11:58 AM59 °FLow clouds.8 mph100%29.80 "Hg9 mi
10:58 AM59 °FLow clouds.5 mph100%29.80 "Hg10 mi
9:59 AM58 °FLow clouds.6 mph100%29.79 "Hg10 mi
8:52 AM57 °FLight rain. Low clouds.7 mph100%29.76 "Hg7 mi
8:02 AM57 °FDrizzle. Fog.5 mph100%29.77 "Hg2 mi
7:58 AM57 °FBroken clouds.5 mph100%29.78 "Hg9 mi
6:58 AM57 °FLight rain. Fog.2 mph100%29.79 "Hg3 mi
4:47 AM59 °FDrizzle. Low clouds.5 mph100%29.78 "Hg8 mi
3:58 AM59 °FLow clouds.5 mph100%29.80 "Hg7 mi
3:53 AM59 °FLow clouds.5 mph100%29.79 "Hg7 mi
3:03 AM59 °FFog.2 mph100%29.80 "Hg6 mi
2:58 AM59 °FFog.2 mph100%29.81 "Hg6 mi
2:00 AM59 °FLow clouds.3 mph100%29.81 "Hg9 mi
1:04 AM59 °FLight rain. Passing clouds.12 mph100%29.81 "Hg10 mi
12:58 AM58 °FLight rain. Overcast.15 mph100%29.82 "Hg9 mi
11:58 PM
Mon, May 2
57 °FRain. Fog.12 mph100%29.91 "Hg3 mi
11:47 PM57 °FRain. Fog.12 mph100%29.90 "Hg4 mi
10:58 PM57 °FStrong thunderstorms. Fog.10 mph100%29.90 "Hg3 mi
10:01 PM57 °FThunderstorms. Partly cloudy.9 mph100%29.89 "Hg10 mi
Weather by CustomWeather, © 2016

See weather overviewHow to use our weather pages